Regional Weather Roundup
Issued by NWS Upton, NY

Current Version | Previous Version | Graphics & Text | Print | Product List | Glossary Off
Versions: 1 2 3 4 5 6 7 8 9 10 11 12 13 14 15 16 17 18 19 20 21 22 23 24 25 26 27 28 29 30 31 32 33 34 35 36 37 38 39 40 41 42 43 44 45 46 47 48 49 50
000 ASUS41 KOKX 312005 RWROKX REGIONAL WEATHER ROUNDUP NATIONAL WEATHER SERVICE NEW YORK NY 300 PM EST SAT JAN 31 2015 NOTE: "FAIR" INDICATES FEW OR NO CLOUDS BELOW 12,000 FEET WITH NO SIGNIFICANT WEATHER AND/OR OBSTRUCTIONS TO VISIBILITY. NYZ071-072-176-178-NJZ106-104-312100- NEW YORK CITY METRO AREA CITY SKY/WX TMP DP RH WIND PRES REMARKS CENTRAL PARK SUNNY 26 -3 28 NW12G24 30.11S WCI 16 LAGUARDIA APRT MOSUNNY 26 1 34 NW28G35 30.09S WCI 10 KENNEDY INTL MOSUNNY 27 -1 30 NW20G33 30.10R WCI 13 NEWARK/LIBERTY MOSUNNY 26 2 35 NW16G32 30.11F WCI 14 BRNX BOT. GARD N/A N/A N/A N/A W12 30.09F TETERBORO SUNNY 26 -2 29 NW15G25 30.11S WCI 14 $$ NYZ177-179-078>081-312100- LONG ISLAND NEW YORK CITY SKY/WX TMP DP RH WIND PRES REMARKS FARMINGDALE SUNNY 25 -2 31 NW13G25 30.07R WCI 14 ISLIP SUNNY 24 2 38 NW15G30 30.03R WCI 11 SHIRLEY SUNNY 24 1 36 NW21G33 30.05R WCI 9 WESTHAMPTON SUNNY 23 1 38 NW25G37 30.01R WCI 7 MONTAUK POINT N/A 23 4 44 NW17G30 29.96R WCI 9 $$ NYZ052-065-067-312100- HUDSON VALLEY CITY SKY/WX TMP DP RH WIND PRES REMARKS WHITE PLAINS SUNNY 22 0 38 NW24G32 30.04R WCI 5 NEWBURGH SUNNY 21 18 86 W16G28 30.08S WCI 7 MONTGOMERY SUNNY 22 -4 32 NW23G30 30.08F WCI 6 POUGHKEEPSIE SUNNY 25 -6 25 N13G20 30.09R WCI 14 ALBANY SUNNY 14 -5 42 W20G33 30.13S WCI -3 $$ NJZ001-105-106-008-010-013-015-019>022-104-312100- NEW JERSEY CITY SKY/WX TMP DP RH WIND PRES REMARKS NEWARK/LIBERTY MOSUNNY 26 2 35 NW16G32 30.11F WCI 14 TETERBORO SUNNY 26 -2 29 NW15G25 30.11S WCI 14 CALDWELL SUNNY 25 -1 32 NW14G21 30.11F WCI 13 MORRISTOWN SUNNY 25 1 36 NW14G24 30.12F WCI 13 SOMERVILLE SUNNY 26 1 34 NW12G23 30.12F WCI 16 SUSSEX SUNNY 23 0 36 NW10G21 30.11S WCI 12 ANDOVER N/A 24 1 36 VRB7 30.11F WCI 16 TRENTON SUNNY 26 1 34 N15G24 30.14S WCI 14 MILLVILLE SUNNY 28 4 35 NW17G24 30.19S WCI 16 ATLANTIC CITY SUNNY 29 2 31 NW22G30 30.15F WCI 15 WRIGHTSTOWN SUNNY 26 4 38 NW16G24 30.14S WCI 14 TOMS RIVER SUNNY 25 3 39 NW24 30.13S WCI 9 BELMAR SUNNY 25 0 33 NW17G28 30.11R WCI 11 $$ PAZ047>061-062-071-312100- EASTERN PENNSYLVANIA CITY SKY/WX TMP DP RH WIND PRES REMARKS PHILADELPHIA SUNNY 28 3 34 W16G25 30.20F WCI 16 ALLENTOWN SUNNY 25 3 38 NW14G23 30.16S WCI 13 SCRANTON SUNNY 21 2 43 NW15G21 30.16R WCI 8 $$ CTZ002-004>006-009-010-012-RIZ004-006-007-MAZ004-011-015-312100- SOUTHERN NEW ENGLAND IN CT CITY SKY/WX TMP DP RH WIND PRES REMARKS BRADLEY INTL SUNNY 20 -5 33 N17G30 30.02R WCI 5 HARTFORD SUNNY 20 -6 31 NW12G23 30.04R WCI 8 DANBURY SUNNY 22 -5 30 NW10 30.04S WCI 11 WTRBRY/OXFORD SUNNY 19 -6 32 NW15G30 30.00R WCI 5 BRIDGEPORT SUNNY 24 0 35 NW21G32 30.04R WCI 9 MERIDEN SUNNY 21 -4 33 NW22G32 30.03R WCI 5 NEW HAVEN SUNNY 23 -2 33 NW17G29 30.03R WCI 9 CHESTER FAIR 21 -6 30 NW18G30 29.97R WCI 6 GROTON SUNNY 20 -3 36 NW24G32 29.95S WCI 3 WILLIMANTIC SUNNY 19 -6 33 NW14G26 29.97R WCI 6 IN RI CITY SKY/WX TMP DP RH WIND PRES REMARKS PROVIDENCE MOSUNNY 23 -4 30 NW23G30 29.89R WCI 7 BLOCK ISLAND SUNNY 21 0 39 NW17G31 29.90R WCI 7 WESTERLY SUNNY 22 -5 30 W15G29 29.93S WCI 9 IN MA CITY SKY/WX TMP DP RH WIND PRES REMARKS BOSTON MOSUNNY 21 -8 27 NW25G38 29.86R WCI 4 WORCESTER SUNNY 16 -5 39 NW24G38 29.84R WCI -2 WESTFIELD SUNNY 17 -3 41 NW22G32 30.01R WCI 0 PROVINCETOWN SUNNY 25 7 46 NW31G43 29.80R WCI 8 NANTUCKET SUNNY 25 5 42 NW21G36 29.79R WCI 11 $$ ANZ330-335-338-340-345-350-353-355-312100- COASTAL MARINE OBSERVATIONS STATION/POSITION TIME SKY/WX TEMP WIND PRES VSBY WAVE AIR SEA DIR/SP/G HT/PER (UTC) (F) (DEG/KT/KT) (MB) (MI) (FT/S) NY HARB ENTRANCE 2000 27 40 300/ 23/ 29 1018.5 4/ 5 4S FIRE IS NOT AVBL 20S FIRE ISLAND 1900 41 1018.0 7/ 6 23SW MTP 2000 N/A 9/ 6 HUDSON CANYON NOT AVBL EXECUTION ROCKS 2000 26 33 300/ 17/ 23 N/A WESTERN LI SOUND 2000 25 300/ 21/ 27 N/A 2/ 3 CENTRAL LI SOUND 1900 23 34 310/ 23/ 29 N/A 5/ 4 EASTERN LI SOUND NOT AVBL ROBBINS REEF 2000 24 310/ 22/ 27 1018.2 $$ >>>>>>>>>>>>>>>>>>>>>>>>>>>> KEY <<<<<<<<<<<<<<<<<<<<<<<<<<< > < > SKY/WX - SKY CONDITION/PRESENT WEATHER < > TMP - TEMPERATURE IN FAHRENHEIT < > DP - DEWPOINT IN FAHRENHEIT < > RH - RELATIVE HUMIDITY IN PERCENT < > WIND - DIRECTION AND SPEED IN MPH < > PRES - MEAN SEA LEVEL PRESSURE IN INCHES OF HG < > WCI - WIND CHILL INDEX < > VSB - VISIBILITY IN MILES < > HX - HEAT INDEX < > TC - TEMPERATURE IN CELSIUS < > VRB - VARIABLE WIND DIRECTION < > < >>>>>>>>>>>>>>>>>>>>>>>>>>>> KEY <<<<<<<<<<<<<<<<<<<<<<<<<<<

USA.gov is the U.S. government's official web portal to all federal, state and local government web resources and services.